Location: Bednik
(45.3500°N, 16.3833°E)
Time: 08:23:33
(UTC+00:00)

Okean 2 Rocket - Pass Details

Date: 08 August 2020
Orbit: 616 x 642 km, 82.5° (Epoch: 26 September)

Event Time Altitude Azimuth Distance (km) Brightness Sun altitude
Exits shadow 23:45:18 54° 22° (NNE) 778 3.8 -28.0°
Drops below altitude 10° 23:48:49 10° 11° (N) 2,033 6.7 -27.9°
Sets 23:51:05 0° 10° (N) 2,950 7.8 -27.8°
